Content
SEND FEEDBACK

Daily
Averages
Monthly
Summary
United States of America

POWELL BUTTE, OREGON


Home > North America > United States > Oregon
Elevation: 2876 feet     Latitude: 44 19N     Longitude: 120 53W

WEATHER
 
SELECT A DAY
Number of Records: 228,681;   Date Range: 1/1/95 - 7/23/14
 
SHARE

PRINT THIS DATA

[ ← Previous Day ]
WEATHER ALMANAC - JANUARY 23, 2013
[ Next Day → ]
[ °C ]   °F
Weather ElementAverageHighLow
Temperature34.5 °F52 °F (1:56 pm)23 °F (1:56 am)
Dewpoint28 °F33.8 °F (8:31 pm)19.9 °F (1:56 am)
Humidity78.8 %96 % (7:56 pm)43 % (1:56 pm)
Barometer30.01 in30.14 in (11:56 pm)29.88 in (1:56 pm)
Wind Speed4.4 mph18.4 mph (1:56 pm)
Wind Gust32.2 mph (1:56 pm)
Weather ElementAverage
Visibility9.7 mi
Wind DirectionESE (110 °)

Weather ElementTotal
Precipitation0.02 in
Heating Degree Days27.5 (Base 65)
Averaged from 26 records on January 23, 2013
WEATHER CONDITIONS BREAKOUT
WIND DIRECTION BREAKOUT
WEATHER BY HOUR - JANUARY 23, 2013
[ °C ]   °F
Local TimeTemperatureDewpointHumidityBarometerVisibilityWind DirectionWind SpeedGust SpeedPrecipitationEventsConditions
1:56 AM23.0 °F19.9 °F88 %30.06 in10.0 miCalmClear
2:56 AM24.1 °F21.0 °F88 %30.05 in10.0 miCalmClear
3:56 AM26.1 °F21.0 °F81 %30.04 in10.0 miCalmClear
4:56 AM27.0 °F23.0 °F85 %30.02 in10.0 miCalmMostly Cloudy
5:56 AM28.0 °F23.0 °F81 %30.01 in10.0 miNNE (20°)4.6 mphOvercast
7:56 AM25.0 °F21.0 °F85 %30.02 in10.0 miNW (320°)4.6 mphOvercast
8:56 AM26.1 °F21.9 °F84 %30.00 in10.0 miWest (280°)4.6 mphOvercast
9:56 AM27.0 °F21.9 °F81 %29.99 in10.0 miNNW (330°)4.6 mphMostly Cloudy
10:56 AM28.0 °F21.9 °F78 %29.99 in10.0 miVariable4.6 mphOvercast
11:56 AM35.1 °F24.1 °F64 %29.93 in10.0 miNNW (340°)6.9 mphPartly Cloudy
12:56 PM41.0 °F26.1 °F55 %29.91 in10.0 miCalmClear
1:56 PM52.0 °F30.0 °F43 %29.88 in10.0 miSSW (210°)18.4 mph32.2 mphMostly Cloudy
2:56 PM50.0 °F30.9 °F48 %29.90 in10.0 miSSW (210°)13.8 mph20.7 mphOvercast
3:56 PM48.9 °F33.1 °F54 %29.91 in10.0 miSW (230°)10.4 mphOvercast
4:56 PM46.9 °F33.1 °F59 %29.93 in10.0 miSouth (180°)16.1 mph21.9 mphOvercast
5:56 PM36.0 °F28.0 °F73 %29.98 in10.0 miNW (320°)11.5 mph17.3 mphOvercast
6:56 PM34.0 °F30.0 °F85 %30.02 in5.0 miNW (320°)4.6 mph0.00 inRainLight Rain
7:52 PM33.8 °F32.0 °F93 %29.99 in9.0 miCalm0.01 inRainLight Rain
7:56 PM34.0 °F33.1 °F96 %30.06 in9.0 miCalm0.01 inRainLight Rain
8:31 PM35.6 °F33.8 °F93 %30.01 in10.0 miCalm0.00 inOvercast
8:56 PM35.1 °F33.1 °F92 %30.08 in10.0 miCalm0.00 inOvercast
9:07 PM35.6 °F33.8 °F93 %30.03 in10.0 miCalmOvercast
9:56 PM36.0 °F33.1 °F89 %30.10 in10.0 miNE (50°)4.6 mphOvercast
10:22 PM35.6 °F33.8 °F93 %30.06 in10.0 miCalmOvercast
10:56 PM37.0 °F33.1 °F86 %30.13 in10.0 miNE (50°)4.6 mphOvercast
11:56 PM37.0 °F32.0 °F82 %30.14 in10.0 miCalmOvercast
Hourly data recorded from KRDM, located miles away from Powell Butte, Oregon







STORIES FROM OUR PARTNERS